SCP
1 0 0 1 1 1 1 1 1 1 1 1 1 1 1 1 1 1 1 1 1 1 1 1 1 1 0 0 0 0 0 1
2 1 1 1 1 1 1 1 1 1 1 1 1 1 1 1 1 1 1 1 1 1 1 1 1 1 0 0 0 -0 0 1
2 2 1 1 2 1 1 1 1 1 1 2 2 2 2 2 1 1 1 1 1 1 1 1 1 1 0 0 0 0 0 0
3 2 2 2 1 2 2 2 2 2 2 2 3 3 3 2 2 1 2 2 1 1 1 0 1 1 0 0 0 0 0 1
2 3 3 2 2 3 3 2 2 2 2 3 3 4 4 3 3 2 3 2 1 1 1 1 1 1 1 1 1 0 0 1
1 1 3 4 4 3 3 4 3 2 2 2 4 4 4 5 5 5 4 3 3 1 1 1 0 0 1 1 1 0 1 1
1 1 2 2 3 4 3 3 2 2 3 2 3 4 4 5 6 7 5 5 3 2 1 1 0 0 1 1 1 0 1 0
1 1 1 0 1 3 4 4 3 2 2 2 3 4 5 5 4 6 8 6 4 2 0 1 1 1 1 1 1 1 1 0
0 0 0 1 3 4 4 4 4 4 4 3 3 3 3 2 3 4 6 6 6 3 1 0 1 1 2 2 1 1 1 0
0 0 0 0 1 4 5 4 3 4 4 4 4 3 2 3 4 5 6 7 6 3 1 0 0 3 2 1 1 1 0 0
0 0 0 0 0 0 0 0 0 0 2 3 3 3 3 3 4 5 5 7 8 3 0 0 1 1 0 0 0 0 0 0
0 0 0 0 0 0 0 0 0 0 0 0 0 0 2 2 4 4 5 6 4 2 0 0 0 0 0 0 0 0 0 0
0 0 0 0 0 0 0 0 0 0 0 0 0 0 0 0 3 4 3 4 3 1 0 0 0 0 0 0 0 0 0 0
0 0 0 0 0 0 0 0 0 0 0 0 0 0 0 0 0 2 0 4 1 0 0 0 0 0 0 0 0 0 0 0
0 0 0 0 0 0 0 0 0 0 0 0 0 0 0 0 0 0 0 0 1 0 0 0 0 0 0 0 0 0 0 0
0 0 0 0 0 0 0 0 0 0 0 -0 -0 0 0 0 0 0 0 0 0 0 0 0 0 0 0 0 0 0 0 0
0 0 0 0 0 0 0 0 0 0 0 0 0 0 0 0 0 0 0 -0 0 0 0 0 0 0 0 0 0 0 0 0
0 0 0 0 0 0 0 0 0 0 0 0 -0 0 0 0 0 0 0 0 0 0 0 0 0 0 0 0 0 0 0 0
0 0 0 0 0 0 0 0 0 0 0 0 0 0 0 0 0 0 0 0 0 0 -0 0 0 0 0 0 0 0 0 0
0 0 0 0 0 0 0 0 0 0 0 0 0 0 0 0 0 0 0 0 -0 -0 0 0 0 0 0 0 0 0 0 0
Wind_Speed_500mb
16 12 15 20 24 28 32 33 33 31 32 36 39 42 43 44 44 41 38 37 36 35 29 29 27 26 24 22 28 30 23 24
20 21 19 24 29 34 38 39 39 38 38 41 44 45 47 50 50 48 44 43 41 39 34 34 32 30 29 26 28 30 26 21
20 21 24 25 35 39 42 44 45 46 47 48 49 52 54 55 56 57 52 51 48 46 40 39 38 36 34 32 32 34 28 22
25 21 25 27 25 29 38 48 52 55 56 57 57 58 60 60 62 63 61 58 56 53 48 45 42 42 42 41 42 39 34 32
15 24 23 28 27 25 36 37 45 62 61 62 62 62 63 64 64 67 71 69 65 63 59 56 52 50 51 50 47 43 35 35
11 11 24 24 26 39 35 45 40 43 48 59 62 58 63 64 64 66 67 72 74 72 69 63 59 53 58 51 51 47 39 45
21 12 7 8 24 30 40 41 42 38 46 46 51 58 64 63 66 69 74 72 67 76 77 71 65 60 64 56 49 51 54 53
23 21 29 28 18 29 35 44 38 43 45 41 49 61 62 67 70 73 78 76 71 69 76 76 70 70 65 65 51 57 59 60
21 17 20 19 36 31 33 41 52 51 45 49 48 63 67 68 68 73 78 83 80 71 74 75 72 69 68 70 62 67 63 68
30 27 24 18 10 18 20 29 36 46 58 60 56 56 62 69 76 77 78 79 85 81 83 77 76 74 76 73 73 72 66 80
20 23 26 27 25 13 21 29 31 36 42 50 55 61 64 67 73 83 84 81 87 88 93 94 93 86 86 80 77 75 77 78
28 31 32 25 21 30 23 23 27 37 41 41 54 58 60 67 72 76 85 90 99 97 100 98 101 99 90 85 81 83 86 83
33 34 37 41 38 34 36 40 41 34 38 49 57 63 65 66 64 73 88 95 93 99 102 96 108 104 92 90 90 85 83 85
31 33 34 35 41 35 37 41 41 46 48 49 51 49 52 67 68 67 76 98 95 105 100 96 103 112 99 90 62 76 74 99
32 36 38 36 43 43 49 55 55 43 39 52 62 59 51 50 55 68 61 79 94 117 105 120 110 108 116 81 35 37 76 91
35 42 44 46 51 56 59 60 60 61 65 56 54 64 64 57 54 53 50 47 77 60 84 92 113 105 102 99 59 62 43 41
30 37 32 40 43 48 57 65 68 72 66 65 64 52 58 63 60 58 54 52 43 51 63 63 75 91 95 90 95 50 61 61
37 35 40 46 48 47 49 57 64 71 74 75 71 62 57 57 51 53 58 48 50 54 39 48 71 81 92 89 94 91 70 67
41 43 49 49 54 59 65 58 64 72 73 68 70 66 56 48 42 41 45 44 44 50 50 56 46 53 86 90 104 107 88 84
42 46 46 52 55 58 68 79 72 73 70 72 74 66 68 65 54 47 43 43 41 43 53 59 65 56 54 79 87 90 90 100
Wind_Direction_500mb
260 253 251 233 231 229 228 226 227 228 230 230 231 232 235 238 239 241 242 242 241 241 238 239 237 233 226 211 189 177 160 189
245 268 249 241 237 235 231 230 230 230 231 232 232 233 236 238 239 240 242 245 244 244 239 240 237 234 227 217 206 189 175 181
268 265 274 245 239 238 236 235 234 234 233 232 233 236 236 235 237 239 240 244 244 245 240 239 238 232 228 221 212 200 181 203
280 280 269 281 266 256 245 241 240 238 236 235 234 234 237 236 238 238 238 240 242 243 240 240 238 234 229 222 218 206 196 230
262 280 280 265 275 262 262 262 252 243 242 242 242 239 236 239 239 238 237 237 238 238 236 234 234 234 233 229 223 213 200 226
78 143 262 273 246 274 267 262 260 260 261 253 246 245 241 236 237 241 242 241 237 236 235 233 234 231 240 235 225 216 210 215
289 277 181 194 266 261 267 279 284 275 244 257 259 252 245 240 234 234 245 244 240 237 235 233 231 229 234 237 226 212 217 225
326 313 271 250 255 266 262 260 281 278 274 260 244 246 246 243 237 233 233 241 244 233 238 233 231 235 229 231 225 216 215 224
346 323 311 314 247 252 269 267 263 265 270 271 269 253 252 250 245 242 240 238 238 233 232 237 235 233 229 229 224 219 215 226
21 3 6 359 285 257 282 272 271 274 269 272 275 269 260 258 254 247 245 243 238 230 226 230 237 225 227 225 222 220 215 221
15 354 5 16 4 290 272 281 277 268 259 263 269 270 273 264 257 251 248 242 243 235 230 236 235 232 230 228 226 221 215 221
19 7 8 13 9 12 346 321 293 291 286 280 272 271 269 274 268 258 249 249 249 249 240 236 242 237 241 229 226 224 229 224
15 5 9 4 351 359 342 338 331 315 299 289 288 282 273 270 270 265 258 251 253 253 241 240 236 232 227 220 218 229 226 223
9 3 2 5 341 352 337 330 329 324 321 307 305 299 290 277 271 273 262 255 253 254 242 233 232 230 225 212 214 225 230 227
358 352 356 352 335 333 328 322 322 319 308 300 305 300 299 291 281 265 265 257 245 253 237 239 224 220 222 211 182 213 210 221
344 340 344 332 327 319 316 318 318 310 307 300 305 303 303 299 295 283 273 260 246 253 240 243 227 222 214 208 237 208 189 196
344 331 330 318 319 319 317 315 310 307 304 309 303 293 298 299 297 292 293 300 280 253 252 247 230 230 231 234 226 229 212 193
333 329 325 328 327 321 321 317 313 310 312 310 302 303 294 286 294 297 296 284 277 282 290 268 238 240 256 236 238 221 202 212
329 323 323 322 322 321 314 314 309 300 299 303 302 297 289 284 283 291 295 295 299 287 285 282 285 260 243 236 230 225 218 208
325 324 317 316 316 314 312 308 303 300 302 299 288 284 290 288 283 280 273 285 292 294 292 271 266 277 269 228 225 221 229 231
Wind_Speed_850mb
16 12 15 20 24 28 32 33 33 31 32 36 39 42 43 44 44 41 38 37 36 35 29 29 27 26 24 22 28 30 23 24
20 21 19 24 29 34 38 39 39 38 38 41 44 45 47 50 50 48 44 43 41 39 34 34 32 30 29 26 28 30 26 21
20 21 24 25 35 39 42 44 45 46 47 48 49 52 54 55 56 57 52 51 48 46 40 39 38 36 34 32 32 34 28 22
25 21 25 27 25 29 38 48 52 55 56 57 57 58 60 60 62 63 61 58 56 53 48 45 42 42 42 41 42 39 34 32
15 24 23 28 27 25 36 37 45 62 61 62 62 62 63 64 64 67 71 69 65 63 59 56 52 50 51 50 47 43 35 35
11 11 24 24 26 39 35 45 40 43 48 59 62 58 63 64 64 66 67 72 74 72 69 63 59 53 58 51 51 47 39 45
21 12 7 8 24 30 40 41 42 38 46 46 51 58 64 63 66 69 74 72 67 76 77 71 65 60 64 56 49 51 54 53
23 21 29 28 18 29 35 44 38 43 45 41 49 61 62 67 70 73 78 76 71 69 76 76 70 70 65 65 51 57 59 60
21 17 20 19 36 31 33 41 52 51 45 49 48 63 67 68 68 73 78 83 80 71 74 75 72 69 68 70 62 67 63 68
30 27 24 18 10 18 20 29 36 46 58 60 56 56 62 69 76 77 78 79 85 81 83 77 76 74 76 73 73 72 66 80
20 23 26 27 25 13 21 29 31 36 42 50 55 61 64 67 73 83 84 81 87 88 93 94 93 86 86 80 77 75 77 78
28 31 32 25 21 30 23 23 27 37 41 41 54 58 60 67 72 76 85 90 99 97 100 98 101 99 90 85 81 83 86 83
33 34 37 41 38 34 36 40 41 34 38 49 57 63 65 66 64 73 88 95 93 99 102 96 108 104 92 90 90 85 83 85
31 33 34 35 41 35 37 41 41 46 48 49 51 49 52 67 68 67 76 98 95 105 100 96 103 112 99 90 62 76 74 99
32 36 38 36 43 43 49 55 55 43 39 52 62 59 51 50 55 68 61 79 94 117 105 120 110 108 116 81 35 37 76 91
35 42 44 46 51 56 59 60 60 61 65 56 54 64 64 57 54 53 50 47 77 60 84 92 113 105 102 99 59 62 43 41
30 37 32 40 43 48 57 65 68 72 66 65 64 52 58 63 60 58 54 52 43 51 63 63 75 91 95 90 95 50 61 61
37 35 40 46 48 47 49 57 64 71 74 75 71 62 57 57 51 53 58 48 50 54 39 48 71 81 92 89 94 91 70 67
41 43 49 49 54 59 65 58 64 72 73 68 70 66 56 48 42 41 45 44 44 50 50 56 46 53 86 90 104 107 88 84
42 46 46 52 55 58 68 79 72 73 70 72 74 66 68 65 54 47 43 43 41 43 53 59 65 56 54 79 87 90 90 100
Wind_Direction_850mb
260 253 251 233 231 229 228 226 227 228 230 230 231 232 235 238 239 241 242 242 241 241 238 239 237 233 226 211 189 177 160 189
245 268 249 241 237 235 231 230 230 230 231 232 232 233 236 238 239 240 242 245 244 244 239 240 237 234 227 217 206 189 175 181
268 265 274 245 239 238 236 235 234 234 233 232 233 236 236 235 237 239 240 244 244 245 240 239 238 232 228 221 212 200 181 203
280 280 269 281 266 256 245 241 240 238 236 235 234 234 237 236 238 238 238 240 242 243 240 240 238 234 229 222 218 206 196 230
262 280 280 265 275 262 262 262 252 243 242 242 242 239 236 239 239 238 237 237 238 238 236 234 234 234 233 229 223 213 200 226
78 143 262 273 246 274 267 262 260 260 261 253 246 245 241 236 237 241 242 241 237 236 235 233 234 231 240 235 225 216 210 215
289 277 181 194 266 261 267 279 284 275 244 257 259 252 245 240 234 234 245 244 240 237 235 233 231 229 234 237 226 212 217 225
326 313 271 250 255 266 262 260 281 278 274 260 244 246 246 243 237 233 233 241 244 233 238 233 231 235 229 231 225 216 215 224
346 323 311 314 247 252 269 267 263 265 270 271 269 253 252 250 245 242 240 238 238 233 232 237 235 233 229 229 224 219 215 226
21 3 6 359 285 257 282 272 271 274 269 272 275 269 260 258 254 247 245 243 238 230 226 230 237 225 227 225 222 220 215 221
15 354 5 16 4 290 272 281 277 268 259 263 269 270 273 264 257 251 248 242 243 235 230 236 235 232 230 228 226 221 215 221
19 7 8 13 9 12 346 321 293 291 286 280 272 271 269 274 268 258 249 249 249 249 240 236 242 237 241 229 226 224 229 224
15 5 9 4 351 359 342 338 331 315 299 289 288 282 273 270 270 265 258 251 253 253 241 240 236 232 227 220 218 229 226 223
9 3 2 5 341 352 337 330 329 324 321 307 305 299 290 277 271 273 262 255 253 254 242 233 232 230 225 212 214 225 230 227
358 352 356 352 335 333 328 322 322 319 308 300 305 300 299 291 281 265 265 257 245 253 237 239 224 220 222 211 182 213 210 221
344 340 344 332 327 319 316 318 318 310 307 300 305 303 303 299 295 283 273 260 246 253 240 243 227 222 214 208 237 208 189 196
344 331 330 318 319 319 317 315 310 307 304 309 303 293 298 299 297 292 293 300 280 253 252 247 230 230 231 234 226 229 212 193
333 329 325 328 327 321 321 317 313 310 312 310 302 303 294 286 294 297 296 284 277 282 290 268 238 240 256 236 238 221 202 212
329 323 323 322 322 321 314 314 309 300 299 303 302 297 289 284 283 291 295 295 299 287 285 282 285 260 243 236 230 225 218 208
325 324 317 316 316 314 312 308 303 300 302 299 288 284 290 288 283 280 273 285 292 294 292 271 266 277 269 228 225 221 229 231